This demonstration page uses our WeatherBlox Daily Observations layout. Learn more.

Left ArrowRight Arrow

31.84235, -102.49876

Hourly Observations for May 9, 2021

Temp ( °F °C ) Dew Point ( °F °C ) Humidity (%) Winds ( mph kmh ) Pressure ( in mb ) Visibility ( mi km ) Precip ( " mm )
12:53 am 00:53 undefined 75 23.9 18 -7.8 11 11 SSW 7 11 29.65 1004 10 16 0.00 0.00
1:53 am 01:53 undefined 72 22.2 54 12.2 53 53 SSW 10 17 29.66 1005 10 16 0.00 0.00
2:53 am 02:53 undefined 70 21.1 55 12.8 59 59 SSW 9 15 29.66 1004 10 16 0.00 0.00
3:53 am 03:53 undefined 67 19.4 55 12.8 66 66 SSW 7 11 29.66 1004 10 16 0.00 0.00
4:53 am 04:53 undefined 65 18.3 53 11.7 66 66 SW 6 9 29.67 1005 10 16 0.00 0.00
5:53 am 05:53 undefined 60 15.6 47 8.3 62 62 NW 6 9 29.69 1005 10 16 0.00 0.00
6:53 am 06:53 undefined 60 15.6 28 -2.2 30 30 NW 7 11 29.71 1006 10 16 0.00 0.00
7:53 am 07:53 undefined 61 16.1 31 -0.6 32 32 N 13 20 29.75 1007 10 16 0.00 0.00
8:53 am 08:53 undefined 68 20 41 5 38 38 NE 18 30 29.78 1008 10 16 0.00 0.00
9:53 am 09:53 undefined 71 21.7 45 7.2 39 39 NE 20 31 29.80 1009 10 16 0.00 0.00
10:53 am 10:53 undefined 74 23.3 45 7.2 36 36 NE 17 28 29.80 1009 10 16 0.00 0.00
11:53 am 11:53 undefined 77 25 44 6.7 31 31 NE 14 22 29.82 1010 10 16 0.00 0.00
12:53 pm 12:53 undefined 80 26.7 44 6.7 28 28 NE 8 13 29.80 1009 10 16 0.00 0.00
1:53 pm 13:53 undefined 81 27.2 44 6.7 27 27 VRB 6 9 29.80 1009 10 16 0.00 0.00
2:53 pm 14:53 undefined 83 28.3 45 7.2 26 26 VRB 5 7 29.78 1008 10 16 0.00 0.00
4:53 pm 16:53 undefined 86 30 44 6.7 23 23 E 13 20 29.74 1007 10 16 0.00 0.00
5:53 pm 17:53 undefined 84 28.9 42 5.6 23 23 VRB 5 7 29.73 1007 10 16 0.00 0.00
6:53 pm 18:53 undefined 84 28.9 46 7.8 27 27 E 12 19 29.73 1007 10 16 0.00 0.00
7:53 pm 19:53 undefined 81 27.2 49 9.4 33 33 E 13 20 29.73 1007 10 16 0.00 0.00
8:53 pm 20:53 undefined 76 24.4 50 10 40 40 E 14 22 29.74 1007 10 16 0.00 0.00
9:53 pm 21:53 undefined 73 22.8 48 8.9 41 41 E 17 28 29.77 1008 10 16 0.00 0.00
10:53 pm 22:53 undefined 70 21.1 48 8.9 46 46 E 16 26 29.79 1009 10 16 0.00 0.00
11:53 pm 23:53 undefined 68 20 49 9.4 51 51 E 14 22 29.80 1009 10 16 0.00 0.00

Powered by AerisWeather